K5RG-3 Weather Reports


time (UTC)temp
C
wind
direction
speed
KPH
gust
KPH
rain 1hr
cm
rain 24hr
cm
rain mn
cm
humidity
%
barometer
mb
20260903151511 28 80 0.0 4.8 0.00 0.00 0.00 86 1012.6
20260903150015 27 60 1.6 4.8 0.00 0.00 0.00 84 1012.6
20260903144513 27 46 0.0 1.6 0.00 0.00 0.00 84 1012.5
20260903143006 27 46 1.6 4.8 0.00 0.00 0.00 84 1012.6
20260903141506 27 46 0.0 1.6 0.00 0.00 0.00 84 1012.8
20260903140001 26 80 0.0 0.0 0.00 0.00 0.00 83 1012.8
20260903134626 26 80 0.0 0.0 0.00 0.00 0.00 83 1012.7
20260903133059 26 119 0.0 0.0 0.00 0.00 0.00 83 1012.8
20260903131558 26 119 0.0 0.0 0.00 0.00 0.00 82 1012.7
20260903130106 26 119 0.0 0.0 0.00 0.00 0.00 82 1012.7
20260903124557 27 96 0.0 3.2 0.00 0.00 0.00 82 1012.5
20260903123052 27 175 0.0 3.2 0.00 0.00 0.00 84 1012.4
20260903121553 28 209 0.0 1.6 0.00 0.00 0.00 89 1012.0
20260903120116 28 222 0.0 0.0 0.00 0.00 0.00 88 1011.9
20260903114600 28 222 0.0 1.6 0.00 0.00 0.00 88 1011.9
20260903113045 28 241 0.0 1.6 0.00 0.00 0.00 88 1011.8
20260903111543 28 231 0.0 3.2 0.00 0.00 0.00 88 1011.7
20260903110042 28 231 0.0 1.6 0.00 0.00 0.00 87 1011.5
20260903104541 28 162 0.0 1.6 0.00 0.00 0.00 87 1011.5
20260903103041 28 162 0.0 1.6 0.00 0.00 0.00 87 1011.5
20260903101541 28 162 0.0 0.0 0.00 0.00 0.00 87 1011.4
20260903100045 28 162 0.0 0.0 0.00 0.00 0.00 87 1011.4
20260903094543 28 162 0.0 0.0 0.00 0.00 0.00 87 1011.3
20260903093038 28 215 0.0 0.0 0.00 0.00 0.00 87 1011.3
20260903091538 28 187 0.0 0.0 0.00 0.00 0.00 87 1011.5
20260903090038 28 152 0.0 4.8 0.00 0.00 0.00 87 1011.5
20260903084539 28 163 0.0 3.2 0.00 0.00 0.00 87 1011.4
20260903083044 28 172 0.0 0.0 0.00 0.00 0.00 87 1011.4
20260903081538 28 159 0.0 0.0 0.00 0.00 0.00 87 1011.3
20260903080035 28 200 0.0 1.6 0.00 0.00 0.00 87 1011.2
20260903074533 28 80 0.0 3.2 0.00 0.00 0.00 86 1011.2
20260903073036 28 192 0.0 3.2 0.00 0.00 0.00 86 1011.2
20260903071531 28 172 0.0 3.2 0.00 0.00 0.00 86 1011.3
20260903070029 28 146 0.0 4.8 0.00 0.00 0.00 85 1011.4
20260903064528 28 169 0.0 1.6 0.00 0.00 0.00 86 1011.8
20260903063024 28 150 0.0 1.6 0.00 0.00 0.00 86 1011.9
20260903061536 28 225 0.0 1.6 0.00 0.00 0.00 86 1012.1
20260903060021 28 225 0.0 0.0 0.00 0.00 0.00 86 1012.3
20260903054521 29 225 0.0 3.2 0.00 0.00 0.00 85 1012.3
20260903053019 29 156 0.0 0.0 0.00 0.00 0.00 84 1012.2
20260903051518 29 156 0.0 0.0 0.00 0.00 0.00 84 1012.3
20260903050019 29 156 0.0 0.0 0.00 0.00 0.00 84 1012.3
20260903044516 29 156 0.0 0.0 0.00 0.00 0.00 83 1012.5
20260903043017 29 156 0.0 0.0 0.00 0.00 0.00 83 1012.5
20260903041526 29 156 0.0 3.2 0.00 0.00 0.00 83 1012.3
20260903040015 29 159 0.0 1.6 0.00 0.00 0.00 83 1012.7
20260903034515 29 118 0.0 1.6 0.00 0.00 0.00 83 1012.2
20260903033017 29 146 0.0 1.6 0.00 0.00 0.00 83 1012.4
20260903031522 29 69 0.0 0.0 0.00 0.00 0.00 83 1012.4
20260903030016 29 140 0.0 3.2 0.00 0.00 0.00 83 1012.0
20260903024513 29 163 0.0 3.2 0.00 0.00 0.00 84 1011.8
20260903023012 29 150 0.0 0.0 0.00 0.00 0.00 84 1011.6
20260903021516 29 156 0.0 3.2 0.00 0.00 0.00 85 1011.4
20260903020030 29 138 0.0 3.2 0.00 0.00 0.00 85 1011.4
20260903014511 29 163 0.0 3.2 0.00 0.00 0.00 84 1011.4
20260903013011 30 176 0.0 3.2 0.00 0.00 0.00 84 1011.3
20260903011510 30 162 0.0 1.6 0.00 0.00 0.00 84 1011.1
20260903010012 30 147 0.0 3.2 0.00 0.00 0.00 83 1010.8
20260903004511 30 157 0.0 3.2 0.00 0.00 0.00 82 1011.1
20260903003009 30 154 0.0 4.8 0.00 0.00 0.00 81 1011.0
20260903001509 30 150 1.6 6.4 0.00 0.00 0.00 79 1010.3
20260903000008 31 135 0.0 6.4 0.00 0.00 0.00 78 1010.3
20260902234507 31 147 0.0 8.0 0.00 0.00 0.00 76 1010.4
20260902233007 31 173 0.0 8.0 0.00 0.00 0.00 75 1010.4
20260902231506 32 150 1.6 8.0 0.00 0.00 0.00 73 1010.4
20260902230006 32 136 1.6 8.0 0.00 0.00 0.00 72 1010.3
20260902224506 32 144 0.0 12.9 0.00 0.00 0.00 72 1010.3
20260902223007 33 171 3.2 14.5 0.00 0.00 0.00 71 1010.2
20260902221510 33 160 3.2 17.7 0.00 0.00 0.00 69 1010.2
20260902220003 33 145 1.6 6.4 0.00 0.00 0.00 71 1010.2
20260902214509 33 156 1.6 4.8 0.00 0.00 0.00 72 1010.2
20260902213002 32 125 0.0 8.0 0.00 0.00 0.00 73 1010.3
20260902211501 32 132 1.6 8.0 0.00 0.00 0.00 73 1010.5
20260902210100 32 137 1.6 6.4 0.00 0.00 0.00 72 1010.5
20260902204600 33 192 1.6 4.8 0.00 0.00 0.00 71 1010.5
20260902203058 35 160 0.0 9.7 0.00 0.00 0.00 67 1010.7
20260902201558 35 144 1.6 14.5 0.00 0.00 0.00 64 1011.0
20260902200048 35 144 3.2 8.0 0.00 0.00 0.00 66 1011.1
20260902194551 34 146 4.8 12.9 0.00 0.03 0.00 67 1011.3
20260902193038 34 231 3.2 16.1 0.00 0.03 0.00 68 1011.5
20260902191535 34 200 3.2 12.9 0.00 0.03 0.00 66 1011.6
20260902190031 35 249 6.4 16.1 0.00 0.03 0.00 66 1011.7
20260902184529 35 207 1.6 19.3 0.00 0.03 0.00 66 1011.9
20260902183022 34 113 4.8 20.9 0.00 0.03 0.00 67 1012.0
20260902181518 33 273 1.6 17.7 0.00 0.03 0.00 69 1012.3
20260902180013 33 281 3.2 19.3 0.00 0.05 0.00 71 1012.6
20260902174512 33 292 4.8 17.7 0.00 0.05 0.00 72 1012.8
20260902173008 32 231 4.8 20.9 0.00 0.05 0.00 74 1012.9
20260902171604 32 229 4.8 20.9 0.00 0.05 0.00 75 1013.1
20260902170058 32 265 11.3 24.1 0.00 0.05 0.00 76 1013.4
20260902164554 31 296 4.8 19.3 0.00 0.05 0.00 78 1013.6
20260902163050 31 292 4.8 20.9 0.00 0.05 0.00 80 1013.7
20260902161553 31 308 4.8 19.3 0.00 0.05 0.00 80 1013.7
20260902154545 30 253 9.7 22.5 0.00 0.05 0.00 84 1013.6
20260902153044 30 265 4.8 19.3 0.00 0.05 0.00 85 1013.5